x

Big Sable Point, Mi (bsbm4) Weather Station

8:40am - Thu 18th Dec 2014 All times are CST. -6 hours from GMT.

  • Wind
    9mph, 15mph gusts
  • Air Temp 30°f
  • Sea Pressure 1023.7mb
  • Big Sable Point, Mi
  • Big Sable Point, Mi

More Historic Weather Station data

Upgrade to MSW Pro to gain access to the past 30 days of data for over 8000 Wavebouys and Weather Stations around the globe.

Join Pro

Comparision Forecast

View Surf forecast
   
Thu 12/18 8:40am 9 15 mph 1023.7mb 30f
8:30am 11 20 mph 1023.7mb 30f
8:20am 14 20 mph 1023.7mb 31f
8:10am 13 18 mph 1023.7mb 31f
8:00am 11 17 mph 1023.7mb 31f
7:40am 15 20 mph 1023.4mb 31f
7:30am 16 21 mph 1023.7mb 30f
7:20am 13 21 mph 1023.4mb 30f
7:10am 16 20 mph 1023.4mb 31f
7:00am 16 20 mph 1023.4mb 31f
6:40am 11 16 mph 1023.7mb 31f
6:30am 14 20 mph 1023.7mb 31f
6:20am 14 20 mph 1023.7mb 31f
6:10am 14 20 mph 1023.7mb 31f
6:00am 14 20 mph 1023.7mb 30f
5:40am 16 21 mph 1023.4mb 31f
5:30am 15 20 mph 1023.7mb 32f
5:20am 17 20 mph 1023.4mb 31f
5:10am 13 20 mph 1023.4mb 31f
5:00am 15 18 mph 1023.4mb 31f
4:40am 15 21 mph 1023mb 31f
4:30am 18 23 mph 1023mb 31f
4:20am 15 23 mph 1023mb 32f
4:10am 16 21 mph 1023mb 31f
4:00am 15 21 mph 1023mb 32f
3:40am 18 23 mph 1023mb 31f
3:30am 17 22 mph 1023.4mb 32f
3:20am 16 23 mph 1023.4mb 32f
3:10am 14 20 mph 1023.4mb 32f
3:00am 17 21 mph 1023.4mb 32f
2:40am 14 18 mph 1023.7mb 32f
2:30am 16 21 mph 1023.7mb 32f
2:20am 16 20 mph 1023.7mb 32f
2:10am 17 21 mph 1023.7mb 32f
2:00am 14 21 mph 1024mb 31f
1:40am 16 20 mph 1023.7mb 32f
1:30am 16 20 mph 1023.7mb 32f
1:20am 16 18 mph 1023.4mb 32f
1:10am 16 20 mph 1023.4mb 32f
1:00am 17 20 mph 1023.4mb 32f
12:40am 17 22 mph 1023.4mb 32f
12:30am 16 22 mph 1023mb 32f
12:20am 17 21 mph 1023mb 32f
12:10am 17 21 mph 1023mb 32f
12:00am 18 23 mph 1023mb 31f
Wed 12/17 11:40pm 18 23 mph 1023mb 31f
11:30pm 18 24 mph 1022.7mb 31f
11:20pm 18 22 mph 1022.7mb 31f
11:10pm 17 23 mph 1022.7mb 31f
11:00pm 20 23 mph 1022.4mb 31f
10:40pm 17 24 mph 1022.4mb 31f
10:30pm 20 26 mph 1022.4mb 31f
10:20pm 17 24 mph 1022.4mb 31f
10:10pm 21 24 mph 1022mb 31f
10:00pm 20 24 mph 1022.4mb 31f
9:40pm 21 28 mph 1022mb 31f
9:30pm 22 26 mph 1022mb 31f
9:20pm 22 26 mph 1022mb 31f
9:10pm 21 24 mph 1022mb 31f
9:00pm 20 25 mph 1021.7mb 31f
8:40pm 18 28 mph 1021.7mb 31f
8:30pm 20 26 mph 1021.7mb 31f
8:20pm 18 26 mph 1021.7mb 31f
8:10pm 23 28 mph 1021.7mb 31f
8:00pm 24 29 mph 1022mb 31f
7:40pm 21 28 mph 1022mb 31f
7:30pm 22 29 mph 1022mb 30f
7:20pm 23 29 mph 1021.7mb 30f
7:10pm 24 30 mph 1022mb 30f
7:00pm 24 29 mph 1021.7mb 30f
6:40pm 24 30 mph 1021.7mb 30f
6:30pm 23 30 mph 1021.7mb 30f
6:23pm 24 30 mph 1021.7mb 30f
6:20pm 22 29 mph 1021.7mb 30f
6:10pm 23 28 mph 1021.7mb 30f
6:00pm 24 29 mph 1021.7mb 30f
5:40pm 24 29 mph 1021.7mb 30f
5:30pm 23 30 mph 1021.3mb 30f
5:21pm 23 30 mph 1021.3mb 30f
5:20pm 23 28 mph 1021.3mb 30f
5:10pm 22 30 mph 1021.3mb 30f
5:00pm 23 30 mph 1021mb 29f
4:40pm 23 30 mph 1021mb 29f
4:30pm 22 30 mph 1021mb 29f
4:20pm 24 30 mph 1021mb 28f
4:18pm 23 30 mph 1021mb 28f
4:10pm 24 29 mph 1021mb 28f
4:00pm 24 30 mph 1020.7mb 29f
3:40pm 25 29 mph 1020.3mb 28f
3:30pm 24 29 mph 1020.3mb 28f
3:20pm 25 30 mph 1020.3mb 28f
3:10pm 24 29 mph 1020.3mb 28f
3:02pm 25 29 mph 1020mb 28f
3:00pm 25 28 mph 1020.3mb 28f
2:40pm 23 28 mph 1020mb 28f
2:30pm 24 26 mph 1020mb 28f
2:20pm 23 28 mph 1020mb 28f
2:10pm 23 29 mph 1020mb 28f
2:02pm 24 29 mph 1020mb 28f
2:00pm 22 26 mph 1020mb 28f
1:40pm 23 28 mph 1020mb 28f
1:30pm 23 28 mph 1020mb 28f
1:20pm 23 29 mph 1020mb 28f
1:10pm 24 29 mph 1019.6mb 28f
1:00pm 21 28 mph 1019.6mb 28f
12:45pm 23 29 mph 1019.6mb 28f
12:40pm 23 28 mph 1019.6mb 28f
12:30pm 22 26 mph 1019.6mb 28f
12:20pm 22 28 mph 1019.6mb 28f
12:10pm 23 28 mph 1020mb 28f
12:00pm 23 26 mph 1020mb 28f
11:40am 23 29 mph 1020mb 28f
11:30am 23 29 mph 1020mb 28f
11:20am 22 29 mph 1020mb 28f
11:13am 23 29 mph 1020mb 28f
11:10am 23 30 mph 1020mb 28f
11:00am 25 29 mph 1020mb 28f
10:40am 24 29 mph 1020.3mb 29f
10:30am 24 29 mph 1020.3mb 29f
10:20am 24 29 mph 1020.3mb 29f
10:10am 24 29 mph 1020.3mb 28f
10:00am 24 30 mph 1020.3mb 29f
9:40am 25 31 mph 1020.3mb 29f
9:30am 25 31 mph 1020.3mb 28f
9:20am 29 32 mph 1020.3mb 29f
9:10am 25 33 mph 1020.3mb 29f
9:09am 24 31 mph 1020.3mb 29f
9:00am 29 33 mph 1020mb 29f
8:50am 26 32 mph 1020mb 29f
8:40am 26 32 mph 1020mb 29f
8:30am 26 31 mph 1019.6mb 29f
8:20am 26 33 mph 1019.6mb 29f
8:10am 26 32 mph 1019.6mb 29f
8:08am 26 29 mph 1019.6mb 29f
8:00am 26 32 mph 1019.6mb 29f
7:50am 28 33 mph 1019.6mb 29f
7:40am 26 32 mph 1019.6mb 29f
7:30am 26 32 mph 1019.6mb 29f
7:20am 28 33 mph 1019.3mb 29f
7:10am 28 33 mph 1019.3mb 29f
7:00am 29 32 mph 1019.3mb 29f
6:50am 26 32 mph 1019.3mb 29f
6:40am 30 33 mph 1019mb 29f
6:30am 28 33 mph 1019mb 29f
6:20am 26 36 mph 1019mb 29f
6:10am 31 34 mph 1018.6mb 29f
6:06am 30
mph
1018.6mb 29f
6:00am 29 37 mph 1018.6mb 29f
5:50am 29 36 mph 1018.6mb 30f
5:40am 30 36 mph 1018.6mb 30f
5:30am 29 36 mph 1018.3mb 30f
5:20am 30 36 mph 1018.3mb 30f
5:10am 29 36 mph 1017.9mb 30f
5:06am 30 33 mph 1017.9mb 30f
5:00am 28 37 mph 1017.9mb 30f
4:50am 31 36 mph 1017.6mb 30f
4:40am 30 36 mph 1017.6mb 30f
4:30am 31 37 mph 1017.6mb 30f
4:20am 30 37 mph 1017.6mb 30f
4:10am 30 37 mph 1017.6mb 30f
4:05am 31 32 mph 1017.3mb 30f
4:00am 31 36 mph 1017.3mb 30f
3:50am 26 34 mph 1017.3mb 31f
3:40am 29 36 mph 1017.3mb 31f
3:30am 29 36 mph 1017.3mb 31f
3:20am 30 36 mph 1016.9mb 31f
3:10am 30 36 mph 1017.3mb 31f
3:05am 30
mph
1017.3mb 31f
3:00am 31 36 mph 1017.3mb 31f
2:50am 30 37 mph 1017.3mb 31f
2:40am 28 37 mph 1017.3mb 31f
2:30am 30 36 mph 1016.9mb 31f
2:20am 30 34 mph 1016.9mb 31f
2:10am 28 36 mph 1016.6mb 31f
2:04am 31
mph
1016.6mb 31f
2:00am 31 36 mph 1016.6mb 31f
1:50am 30 34 mph 1016.6mb 31f
1:40am 29 37 mph 1016.6mb 31f
1:30am 30 34 mph 1016.6mb 31f
1:20am 31 36 mph 1016.6mb 31f
1:10am 28 33 mph 1016.6mb 32f
1:04am 28 31 mph 1016.3mb 31f
1:00am 30 34 mph 1016.3mb 31f
12:50am 30 38 mph 1016.3mb 31f
12:40am 31 34 mph 1015.9mb 31f
12:30am 29 36 mph 1016.3mb 31f
12:20am 29 34 mph 1015.9mb 31f
12:10am 28 33 mph 1015.9mb 31f
12:04am 29 30 mph 1015.9mb 31f
12:00am 28 34 mph 1015.9mb 31f
Tue 12/16 11:50pm 29 34 mph 1015.6mb 31f
11:40pm 29 34 mph 1015.6mb 31f
11:30pm 30 34 mph 1015.6mb 31f
11:20pm 30 33 mph 1015.6mb 31f
11:10pm 31 36 mph 1015.6mb 31f
11:03pm 30 31 mph 1015.2mb 31f
11:00pm 26 34 mph 1015.6mb 31f
10:50pm 29 34 mph 1015.2mb 31f
10:40pm 30 36 mph 1015.2mb 31f
10:30pm 29 34 mph 1014.9mb 31f
10:20pm 31 34 mph 1014.9mb 31f
10:10pm 29 36 mph 1014.9mb 31f
10:03pm 26 30 mph 1014.9mb 31f
10:00pm 31 34 mph 1014.6mb 31f
9:50pm 30 36 mph 1014.9mb 31f
9:40pm 29 34 mph 1014.6mb 31f
9:30pm 28 34 mph 1014.6mb 31f
9:20pm 28 32 mph 1014.2mb 31f
9:10pm 28 32 mph 1014.6mb 31f
9:02pm 26 29 mph 1014.6mb 31f
9:00pm 30 34 mph 1014.2mb 31f
8:50pm 29 33 mph 1014.2mb 32f
8:40pm 28 32 mph 1014.2mb 32f
8:30pm 28 33 mph 1013.9mb 32f
8:20pm 30 33 mph 1013.9mb 32f
8:10pm 30 34 mph 1013.9mb 32f
8:02pm 30 34 mph 1013.9mb 32f
8:00pm 29 34 mph 1013.9mb 32f
7:50pm 26 32 mph 1013.9mb 32f
7:40pm 30 33 mph 1013.5mb 32f
7:30pm 28 32 mph 1013.5mb 33f
7:20pm 30 33 mph 1013.2mb 33f
7:10pm 29 33 mph 1013.2mb 33f
7:02pm 25 29 mph 1013.2mb 33f
7:00pm 25 32 mph 1013.2mb 33f
6:50pm 25 31 mph 1013.2mb 34f
6:40pm 28 31 mph 1012.9mb 34f
6:30pm 25 31 mph 1012.9mb 34f
6:20pm 28 33 mph 1012.5mb 34f
6:10pm 26 31 mph 1012.5mb 35f
6:00pm 23 29 mph 1012.2mb 35f
5:50pm 26 29 mph 1011.9mb 35f
5:40pm 26 31 mph 1011.9mb 35f
5:30pm 25 29 mph 1011.9mb 35f
5:20pm 25 29 mph 1011.5mb 35f
5:10pm 23 28 mph 1011.5mb 35f
5:00pm 22 29 mph 1011.2mb 36f
4:54pm 24 29 mph 1011.2mb 36f
4:50pm 25 29 mph 1010.8mb 36f
4:40pm 24 28 mph 1010.8mb 35f
4:30pm 22 28 mph 1010.8mb 36f
4:20pm 22 26 mph 1010.8mb 35f
4:10pm 24 28 mph 1010.5mb 35f
4:00pm 23 29 mph 1010.5mb 36f
3:53pm 23 29 mph 1010.5mb 36f
3:50pm 24 29 mph 1010.5mb 36f
3:40pm 24 29 mph 1010.2mb 36f
3:30pm 22 26 mph 1010.2mb 36f
3:20pm 22 28 mph 1009.8mb 36f
3:10pm 23 28 mph 1009.5mb 36f
3:00pm 24 26 mph 1009.5mb 36f
2:50pm 23 29 mph 1009.1mb 37f
2:40pm 21 28 mph 1008.8mb 37f
2:30pm 22 29 mph 1008.5mb 37f
2:20pm 20 30 mph 1008.5mb 37f
2:12pm 21 30 mph 1008.1mb 37f
2:10pm 22 28 mph 1008.1mb 37f
2:00pm 22 28 mph 1007.8mb 37f
1:50pm 17 26 mph 1007.8mb 37f
1:40pm 21 28 mph 1007.5mb 37f
1:30pm 23 29 mph 1007.5mb 37f
1:20pm 21 26 mph 1007.5mb 38f
1:10pm 16 25 mph 1007.1mb 38f
1:00pm 18 25 mph 1007.1mb 38f
12:50pm 18 28 mph 1006.8mb 38f
12:40pm 18 26 mph 1006.8mb 38f
12:30pm 20 23 mph 1006.4mb 39f
12:20pm 15 21 mph 1006.4mb 39f
12:10pm 17 21 mph 1006.4mb 40f
12:00pm 13 14 mph 1006.4mb 41f
11:50am 7 8 mph 1006.4mb 41f
11:40am 7
mph
1006.1mb 41f
11:30am 7 8 mph 1006.4mb 41f
11:20am 8
mph
1006.4mb 41f
11:10am 7 8 mph 1006.1mb 41f
11:00am 6 7 mph 1006.1mb 41f
10:40am 6
mph
1006.4mb 42f
10:30am 6 7 mph 1006.4mb 41f
10:20am 6
mph
1006.4mb 41f
10:10am 5
mph
1006.4mb 41f
10:00am 5
mph
1006.4mb 41f
9:50am 2
mph
1006.1mb 42f
9:40am  -  mph 1006.1mb 42f
9:30am  -  mph 1006.1mb 42f
9:20am  -  3 mph 1006.1mb 43f
9:10am 2 5 mph 1006.1mb 42f
9:00am 3 5 mph 1006.1mb 42f
8:50am 5
mph
1006.1mb 42f
8:40am 5 6 mph 1005.8mb 42f
8:30am 3 6 mph 1005.8mb 42f
8:20am 3 6 mph 1005.8mb 42f
8:10am 3 6 mph 1005.8mb 42f
8:00am 3 6 mph 1005.8mb 42f
7:50am 3 5 mph 1005.8mb 42f
7:40am 5 6 mph 1005.4mb 42f
7:30am 3 5 mph 1005.4mb 42f
7:20am 3 5 mph 1005.4mb 42f
7:10am 3 5 mph 1005.4mb 42f
7:00am 3 5 mph 1005.4mb 42f
6:50am 3
mph
1005.4mb 42f
6:40am 2 3 mph 1005.4mb 42f
6:30am 3 5 mph 1005.4mb 42f
6:20am 2 3 mph 1005.4mb 42f
6:10am 2 5 mph 1005.4mb 42f
6:00am 5 6 mph 1005.4mb 42f
5:50am 3 5 mph 1005.4mb 42f
5:40am 3 6 mph 1005.4mb 42f
5:30am 5 7 mph 1005.4mb 42f
5:20am 5 6 mph 1005.4mb 42f
5:10am 6 7 mph 1005.4mb 42f
5:00am 5 6 mph 1005.4mb 42f
4:50am 5 6 mph 1005.4mb 42f
4:40am 5 7 mph 1005.4mb 42f
4:30am 5 6 mph 1005.1mb 42f
4:20am 3 6 mph 1005.4mb 42f
4:10am 5 6 mph 1005.4mb 42f
4:00am 3 7 mph 1005.4mb 42f
3:50am 6 7 mph 1005.4mb 42f
3:40am 5 7 mph 1005.4mb 42f
3:30am 6 7 mph 1005.4mb 42f
3:20am 5 6 mph 1005.4mb 42f
3:10am 5 7 mph 1005.8mb 42f
3:00am 5 7 mph 1005.8mb 42f
2:50am 5 7 mph 1005.8mb 42f
2:40am 5 7 mph 1005.8mb 43f
2:30am 5 7 mph 1006.1mb 43f
2:20am 6 8 mph 1006.1mb 43f
2:10am 6 7 mph 1006.1mb 43f
2:00am 6 8 mph 1006.1mb 43f
1:50am 6 8 mph 1006.1mb 43f
1:40am 7 8 mph 1006.1mb 43f
1:30am 6 8 mph 1006.1mb 43f
1:20am 6 7 mph 1006.1mb 43f
1:10am 6 7 mph 1006.1mb 43f
1:00am 6 8 mph 1006.1mb 43f
12:50am 6 8 mph 1006.1mb 43f
12:40am 7 9 mph 1006.4mb 43f
12:30am 7 9 mph 1006.4mb 43f
12:20am 7 8 mph 1006.4mb 43f
12:10am 6 10 mph 1006.8mb 44f
12:00am 7 9 mph 1006.8mb 43f
Mon 12/15 11:50pm 7 10 mph 1006.8mb 44f
11:40pm 7 10 mph 1007.1mb 44f
11:30pm 8 9 mph 1007.1mb 44f
11:20pm 7 10 mph 1007.1mb 44f
11:10pm 7 10 mph 1007.5mb 44f
11:00pm 8 10 mph 1007.5mb 44f
10:50pm 8 9 mph 1007.5mb 44f
10:40pm 6 10 mph 1007.5mb 44f
10:30pm 8 10 mph 1007.5mb 44f
10:20pm 8 10 mph 1007.8mb 44f
10:10pm 8 11 mph 1007.8mb 44f
10:00pm 8 11 mph 1007.8mb 44f
9:50pm 7 10 mph 1007.8mb 44f
9:40pm 7 9 mph 1008.1mb 44f
9:30pm 7 9 mph 1008.1mb 44f
9:20pm 6 8 mph 1008.1mb 44f
9:10pm 7 10 mph 1008.5mb 45f
9:00pm 8 11 mph 1008.5mb 45f
8:50pm 8 11 mph 1008.8mb 44f
8:40pm 8 11 mph 1008.8mb 45f
8:30pm 8 11 mph 1008.8mb 45f
8:20pm 7 9 mph 1008.8mb 45f
8:10pm 6 9 mph 1008.8mb 45f
8:00pm 6 8 mph 1009.1mb 44f
7:50pm 7 9 mph 1009.1mb 45f
7:40pm 6 8 mph 1009.1mb 44f
7:30pm 6 9 mph 1009.5mb 45f
7:20pm 8 9 mph 1009.5mb 45f
7:10pm 7 10 mph 1009.8mb 45f
7:00pm 6 10 mph 1009.8mb 45f
6:50pm 3 5 mph 1009.8mb 45f
6:40pm 3 6 mph 1009.8mb 45f
6:30pm 3 6 mph 1009.8mb 45f
6:20pm 5 8 mph 1010.2mb 45f
6:10pm 6 8 mph 1009.8mb 45f
6:00pm 6 9 mph 1009.8mb 45f
5:50pm 6 9 mph 1009.5mb 45f
5:40pm 6 9 mph 1009.8mb 45f
5:30pm 6 13 mph 1009.8mb 45f
5:20pm 8 10 mph 1009.8mb 45f
5:10pm 7 9 mph 1010.2mb 45f
5:00pm 6 9 mph 1010.2mb 45f
4:50pm 7 10 mph 1010.2mb 45f
4:40pm 7 11 mph 1010.2mb 45f
4:30pm 7 10 mph 1010.2mb 45f
4:20pm 5 7 mph 1010.2mb 45f
4:10pm 3 7 mph 1010.2mb 46f
4:00pm 6 9 mph 1010.2mb 46f
3:50pm 8 11 mph 1010.2mb 45f
3:40pm 8 11 mph 1010.5mb 45f
3:30pm 8 13 mph 1010.5mb 45f
3:20pm 8 14 mph 1010.5mb 45f
3:10pm 9 13 mph 1010.2mb 45f
3:00pm 8 13 mph 1010.5mb 45f
2:50pm 7 13 mph 1010.5mb 45f
2:40pm 8 10 mph 1010.5mb 45f
2:30pm 8 14 mph 1010.5mb 44f
2:20pm 10 14 mph 1010.5mb 44f
2:10pm 10 15 mph 1010.8mb 44f
2:00pm 10 17 mph 1010.8mb 44f
1:50pm 13 17 mph 1011.2mb 44f
1:40pm 10 17 mph 1011.2mb 44f
1:30pm 11 16 mph 1011.2mb 44f
1:20pm 11 18 mph 1011.2mb 44f
1:10pm 14 18 mph 1011.5mb 44f
1:00pm 14 20 mph 1011.5mb 43f
12:50pm 14 22 mph 1011.5mb 43f
12:40pm 14 20 mph 1011.9mb 43f
12:30pm 16 21 mph 1011.9mb 43f
12:20pm 17 24 mph 1012.2mb 44f
12:10pm 17 24 mph 1012.5mb 43f
12:00pm 17 23 mph 1012.5mb 43f
11:50am 17 23 mph 1012.5mb 43f
11:40am 16 24 mph 1012.5mb 43f
11:30am 17 23 mph 1012.9mb 43f
11:20am 17 23 mph 1012.9mb 43f
11:10am 16 22 mph 1013.2mb 43f
11:00am 16 23 mph 1013.2mb 43f
10:50am 16 23 mph 1013.5mb 43f
10:40am 17 24 mph 1013.5mb 43f
10:30am 17 24 mph 1013.5mb 43f
10:20am 17 23 mph 1013.9mb 43f
10:10am 18 23 mph 1013.9mb 43f
10:00am 18 24 mph 1014.2mb 43f
9:50am 16 23 mph 1014.2mb 43f
9:40am 14 17 mph 1014.2mb 43f
9:30am 13 18 mph 1013.9mb 42f
9:20am 14 18 mph 1013.9mb 43f
9:10am 14 17 mph 1013.9mb 43f
9:00am 13 17 mph 1014.2mb 43f
8:50am 14 18 mph 1014.2mb 43f
8:40am 13 20 mph 1013.9mb 43f
8:30am 14 20 mph 1013.9mb 43f
8:20am 16 23 mph 1013.9mb 43f
8:10am 16 22 mph 1013.9mb 43f
8:00am 14 20 mph 1013.9mb 43f
7:50am 14 18 mph 1014.2mb 43f
7:40am 15 23 mph 1014.2mb 43f
7:30am 17 22 mph 1014.6mb 43f
7:20am 17 24 mph 1014.2mb 43f
7:10am 18 25 mph 1014.6mb 43f
7:00am 20 24 mph 1014.6mb 43f
6:50am 18 23 mph 1014.6mb 42f
6:40am 17 23 mph 1014.6mb 42f
6:30am 17 23 mph 1014.6mb 42f
6:20am 16 23 mph 1014.9mb 42f
6:10am 16 22 mph 1014.9mb 42f
6:00am 17 22 mph 1014.6mb 42f
5:50am 17 24 mph 1014.9mb 43f
5:40am 18 24 mph 1014.6mb 43f
5:30am 18 24 mph 1014.6mb 43f
5:20am 17 21 mph 1014.6mb 42f
5:10am 17 22 mph 1014.9mb 42f
5:00am 15 23 mph 1014.6mb 42f
4:50am 18 23 mph 1014.9mb 42f
4:40am 16 22 mph 1014.9mb 42f
4:30am 16 21 mph 1014.9mb 42f
4:20am 17 22 mph 1014.9mb 43f
4:10am 17 23 mph 1014.9mb 43f
4:00am 16 22 mph 1014.9mb 42f
3:50am 16 22 mph 1014.9mb 42f
3:40am 17 22 mph 1014.9mb 43f
3:30am 17 24 mph 1014.9mb 43f
3:20am 17 24 mph 1014.9mb 42f
3:10am 18 23 mph 1014.9mb 43f
3:00am 16 23 mph 1014.9mb 42f
2:50am 16 21 mph 1015.2mb 42f
2:40am 15 20 mph 1015.2mb 42f
2:30am 15 20 mph 1015.2mb 42f
2:20am 15 21 mph 1015.6mb 42f
2:10am 15 22 mph 1015.6mb 42f
2:00am 15 20 mph 1015.6mb 42f
1:50am 15 21 mph 1015.2mb 42f
1:40am 16 21 mph 1015.2mb 42f
1:30am 15 21 mph 1015.2mb 42f
1:20am 16 21 mph 1015.2mb 42f
1:10am 16 20 mph 1015.2mb 42f
1:00am 16 23 mph 1015.2mb 43f
12:50am 17 22 mph 1015.6mb 43f
12:40am 18 23 mph 1015.6mb 43f
12:30am 15 21 mph 1015.6mb 43f
12:20am 14 20 mph 1015.9mb 43f
12:10am 14 18 mph 1015.9mb 43f
12:00am 15 20 mph 1015.9mb 43f
Sun 12/14 11:50pm 14 18 mph 1015.9mb 43f
11:40pm 13 18 mph 1015.9mb 42f
11:30pm 14 17 mph 1015.9mb 42f
11:20pm 13 16 mph 1016.3mb 43f
11:10pm 11 16 mph 1016.3mb 43f
11:00pm 10 15 mph 1016.3mb 43f
10:50pm 13 17 mph 1016.3mb 43f
10:40pm 14 17 mph 1016.3mb 44f
10:30pm 13 17 mph 1016.3mb 44f
10:20pm 13 17 mph 1016.3mb 43f
10:10pm 11 18 mph 1016.6mb 44f
10:00pm 14 18 mph 1016.6mb 43f
9:50pm 11 17 mph 1016.6mb 43f
9:40pm 13 17 mph 1016.6mb 43f
9:30pm 14 18 mph 1016.6mb 44f
9:20pm 14 18 mph 1016.6mb 43f
9:10pm 14 20 mph 1016.6mb 43f
9:00pm 10 16 mph 1016.6mb 43f
8:50pm 14 18 mph 1016.6mb 43f
8:40pm 14 20 mph 1016.6mb 43f
8:30pm 15 20 mph 1016.6mb 43f
8:20pm 11 18 mph 1016.6mb 43f
8:10pm 14 17 mph 1016.6mb 43f
8:00pm 11 16 mph 1016.6mb 43f
7:50pm 13 16 mph 1016.6mb 43f
7:40pm 11 15 mph 1016.6mb 43f
7:30pm 11 16 mph 1016.6mb 43f
7:20pm 10 16 mph 1016.6mb 44f
7:10pm 13 18 mph 1016.6mb 44f
7:00pm 11 17 mph 1016.9mb 44f
6:50pm 13 17 mph 1016.6mb 45f
6:40pm 13 18 mph 1016.6mb 45f
6:30pm 15 20 mph 1016.6mb 45f
6:20pm 13 18 mph 1016.6mb 45f
6:10pm 14 20 mph 1016.6mb 45f
6:00pm 13 16 mph 1016.6mb 45f
5:50pm 10 14 mph 1016.3mb 45f
5:40pm 10 15 mph 1016.3mb 45f
5:30pm 13 16 mph 1016.3mb 45f
5:20pm 11 17 mph 1016.3mb 44f
5:10pm 10 16 mph 1016.3mb 44f
5:00pm 11 16 mph 1016.6mb 44f
4:50pm 11 17 mph 1016.6mb 44f
4:40pm 13 16 mph 1016.6mb 44f
4:30pm 13 17 mph 1016.6mb 44f
4:20pm 13 17 mph 1016.6mb 44f
4:10pm 11 16 mph 1016.6mb 43f
4:00pm 10 15 mph 1016.6mb 43f